Weather observations for the past three days for
Everett Snohomish County
Imperial (Metric)
Date Time (pdt) Wind (mph) Vis. (mi.) Weather Sky Cond. Temperature (ºF) Relative Humidity Wind Chill (°F) Heat Index (°F) Pressure Precipitation (in)
Air Dwpt 6 hour altimeter (in) sea level (mb) 1 hr 3 hr 6 hr
Max. Min.
22 02:53 N 5 10.00 A Few Clouds FEW008 57.9 53.1 84% 30.11 1019.2
22 01:53 N 5 10.00 Fair CLR 59 54 83% 30.1 1019.3
22 00:53 N 6 10.00 Fair CLR 59 54 83% 30.1 1019.2
21 23:53 N 8 10.00 Fair CLR 60.1 55 84% 30.1 1019.1
21 22:53 N 7 10.00 Fair CLR 61 55 70 61 81% 30.09 1018.8
21 21:53 N 10 10.00 Fair CLR 61 55 81% 30.09 1018.9
21 20:53 N 12 G 18 10.00 Fair CLR 61 55.9 84% 30.09 1018.7
21 19:53 N 10 10.00 Fair CLR 64.9 55.9 73% 30.09 1018.7
21 18:53 N 8 10.00 Fair CLR 69.1 54 59% 30.09 1018.6
21 17:53 N 9 10.00 Fair CLR 68 55.9 65% 30.09 1018.9
21 16:53 N 8 10.00 Fair CLR 70 55.9 73.9 63 61% 30.11 1019.4
21 15:53 N 9 10.00 Fair CLR 69.1 55.9 63% 30.12 1019.6
21 14:53 W 8 10.00 Fair CLR 73 57 57% 30.09 1018.5
21 13:53 W 7 10.00 Fair CLR 66 55.9 70% 30.07 1018.1
21 12:53 Vrbl 6 10.00 Mostly Cloudy FEW060 BKN090 BKN110 64 57 78% 30.11 1019.2
21 11:53 N 6 10.00 Overcast OVC110 66 55.9 70% 30.12 1019.6
21 10:53 Vrbl 5 10.00 A Few Clouds FEW110 66 55.9 66 57.9 70% 30.11 1019.4
21 09:53 Calm 10.00 Fair CLR 63 55.9 78% 30.09 1018.8
21 08:53 N 5 10.00 Fair CLR 63 55.9 78% 30.08 1018.4
21 07:53 N 6 10.00 Fair CLR 63 55.9 78% 30.07 1018.1
21 06:53 NE 6 10.00 Fair CLR 61 55.9 84% 30.08 1018.2
21 05:53 Calm 10.00 Fair CLR 61 55 81% 30.11 1019.2
21 04:53 Calm 10.00 Fair CLR 57.9 54 64.9 57.9 87% 30.08 1018.2
21 03:53 N 8 10.00 Fair CLR 59 55 87% 30.04 1017.0
21 02:53 N 7 10.00 Fair CLR 62.1 55.9 80% 30.03 1016.6
21 01:53 N 8 10.00 Fair CLR 63 55.9 78% 30.04 1016.8
21 00:53 N 6 10.00 Fair CLR 64 55.9 75% 30.05 1017.2
20 23:53 N 8 10.00 Fair CLR 64 57 78% 30.06 1017.5
20 22:53 N 6 10.00 Fair CLR 64 55.9 81 63 75% 30.06 1017.5
20 21:53 N 10 G 22 10.00 Fair CLR 64 55 73% 30.06 1017.6
20 20:53 N 7 10.00 Fair CLR 64.9 55.9 73% 30.06 1017.6
20 19:53 N 6 10.00 Fair CLR 69.1 55.9 63% 30.06 1017.8
20 18:53 N 8 10.00 Fair CLR 73.9 54 50% 30.06 1017.6
20 17:53 N 8 10.00 Fair CLR 80.1 55 42% 80 30.06 1017.7
20 16:53 N 8 10.00 Fair CLR 81 55.9 82 72 42% 81 30.08 1018.2
20 15:53 N 8 10.00 Fair CLR 81 53.1 38% 80 30.1 1019.0
20 14:53 N 9 10.00 Fair CLR 80.1 54 41% 80 30.12 1019.6
20 13:53 Vrbl 6 10.00 Fair CLR 79 55 44% 80 30.13 1020.1
20 12:53 Vrbl 6 10.00 Fair CLR 78.1 57 48% 79 30.15 1020.6
20 11:53 Vrbl 5 10.00 Fair CLR 77 57.9 52% 79 30.16 1020.9
20 10:53 SW 5 10.00 Fair CLR 72 57 73 60.1 59% 30.17 1021.3
20 09:53 N 5 10.00 Fair CLR 71.1 55.9 59% 30.17 1021.4
20 08:53 N 5 10.00 Fair CLR 66.9 55 66% 30.18 1021.7
20 07:53 N 6 10.00 Fair CLR 64.9 55 70% 30.17 1021.4
20 06:53 N 6 10.00 Fair CLR 62.1 55.9 80% 30.16 1021.2
20 05:53 N 5 10.00 Fair CLR 60.1 55 84% 30.17 1021.3
20 04:53 N 6 10.00 Fair CLR 62.1 55 64 60.1 78% 30.16 1021.1
20 03:53 N 5 10.00 Fair CLR 61 55 81% 30.16 1021.1
20 02:53 N 6 10.00 Fair CLR 62.1 55 78% 30.17 1021.3
20 01:53 NE 5 10.00 Fair CLR 63 55 76% 30.17 1021.3
20 00:53 Vrbl 3 10.00 Fair CLR 62.1 55 78% 30.18 1021.6
19 23:53 N 7 10.00 Fair CLR 63 55 76% 30.18 1021.6
19 22:53 N 7 10.00 Fair CLR 64 55 77 64 73% 30.17 1021.5
19 21:53 N 7 10.00 Fair CLR 64.9 55.9 73% 30.17 1021.5
19 20:53 N 7 10.00 Fair CLR 66.9 55.9 68% 30.16 1021.1
19 19:53 N 7 10.00 Fair CLR 72 54 53% 30.16 1021.0
19 18:53 N 7 10.00 Fair CLR 73.9 54 50% 30.16 1021.0
19 17:53 N 6 10.00 Fair CLR 75 54 48% 78 30.16 1021.3
19 16:53 N 10 10.00 Fair CLR 75 57 81 69.1 54% 78 30.18 1021.7
19 15:53 Vrbl 6 10.00 Fair CLR 79 54 42% 79 30.19 1021.9
19 14:53 SW 10 10.00 Fair CLR 79 48 34% 79 30.2 1022.2
19 13:53 W 12 10.00 Fair CLR 77 54 45% 78 30.2 1022.4
19 12:53 W 8 10.00 Fair CLR 73.9 55.9 54% 30.21 1022.7
19 11:53 W 8 10.00 Fair CLR 71.1 55 57% 30.21 1022.9
19 10:53 SW 8 10.00 Fair CLR 70 55.9 70 57.9 61% 30.22 1023.1
19 09:53 W 6 10.00 A Few Clouds FEW008 64.9 55.9 73% 30.22 1023.0
19 08:53 SW 9 10.00 Fair CLR 64 55.9 75% 30.21 1022.8
19 07:53 S 7 10.00 A Few Clouds FEW008 63 55 76% 30.2 1022.4
19 06:53 Calm 10.00 Fair CLR 62.1 55 78% 30.19 1021.9
19 05:53 Calm 10.00 Fair CLR 59 54 83% 30.18 1021.6
19 04:53 Calm 10.00 Fair CLR 59 54 63 59 83% 30.17 1021.3
19 03:53 Calm 10.00 Fair CLR 61 54 78% 30.15 1020.8
Date Time (pdt) Wind (mph) Vis. (mi.) Weather Sky Cond. Air Dwpt Max. Min. Relative Humidity Wind Chill (°F) Heat Index (°F) altimeter (in) sea level (mb) 1 hr 3 hr 6 hr
6 hour
Temperature (ºF) Pressure Precipitation (in)